Regional Weather Roundup
Issued by NWS Green Bay, WI

Home | Current Version | Previous Version | Graphics & Text | Print | Product List | Glossary Off
Versions: 1 2 3 4 5 6 7 8 9 10 11 12 13 14 15 16 17 18 19 20 21 22 23 24 25 26 27 28 29 30 31 32 33 34 35 36 37 38 39 40 41 42 43 44 45 46 47 48 49 50

000
ASUS43 KGRB 010611
RWRGRB

NORTH-CENTRAL AND NORTHEAST WISCONSIN REGIONAL WEATHER ROUNDUP
NATIONAL WEATHER SERVICE GREEN BAY WI
100 AM CDT SUN MAY 01 2016

WIZ005-009-010>012-018-019-010700-
NORTH CENTRAL WISCONSIN

CITY           SKY/WX    TMP DP  RH WIND       PRES   REMARKS
IRONWOOD         N/A     36  30  80 CALM      30.16F
MANITOWISH WTR CLOUDY    37  34  89 NE7       30.15S
ARBOR VITAE    PTCLDY    39  33  79 NE3       30.14S
EAGLE RIVER    CLOUDY    36  30  80 NE6       30.13F
LAND O LAKES   PTCLDY    36  32  87 N6        30.15S
RHINELANDER    PTCLDY    39  31  72 N6        30.13F
PHILLIPS       CLOUDY    39  31  73 NE9       30.14S
ANTIGO         CLOUDY    42  31  64 NE14      30.08F
TOMAHAWK       CLOUDY    40  31  69 N6        30.13S
MERRILL        CLOUDY    45  32  60 NE8       30.10S
$$

WIZ013-073-010700-
NORTHEAST WISCONSIN

CITY           SKY/WX    TMP DP  RH WIND       PRES   REMARKS
IRON MOUNTAIN  CLOUDY    38  32  79 NW5       30.11S
MARINETTE      CLOUDY    45  30  57 N10       30.08S
OCONTO         CLOUDY    44  33  65 N8        30.07F
$$

WIZ017-030-035>037-045-010700-
CENTRAL WISCONSIN

CITY           SKY/WX    TMP DP  RH WIND       PRES   REMARKS
MEDFORD        MOCLDY    43  32  65 NE12      30.08F
WAUSAU         CLOUDY    48  30  49 NE6       30.07S
MOSINEE        CLOUDY    45  30  57 NE10      30.08S
MARSHFIELD     CLOUDY    48  31  51 E15       30.06S
WISC RAPIDS    CLOUDY    48  32  53 E13G21    30.07S
STEVENS POINT  CLOUDY    45  29  54 NE15      30.07R
WAUPACA        LGT RAIN  49  32  52 NE9       30.06R
SHAWANO        CLOUDY    47  32  56 NE12G18   30.09R
CLINTONVILLE   CLOUDY    45  32  61 NE12      30.07S
WAUTOMA        NOT AVBL
$$

WIZ038-039-048-051-010700-
FOX VALLEY

CITY           SKY/WX    TMP DP  RH WIND       PRES   REMARKS
NWS GREEN BAY  CLOUDY    45  35  68 NE25G32   30.07R
APPLETON       LGT RAIN  45  32  61 NE15G21   30.05R
OSHKOSH        CLOUDY    45  37  73 NE13G22   30.04R
FOND DU LAC    CLOUDY    45  37  73 NE10      30.04S
$$

WIZ022-050-052-010700-
EAST CENTRAL WISCONSIN

CITY           SKY/WX    TMP DP  RH WIND       PRES   REMARKS
EPHRAIM        FAIR      40  36  84 N9        30.06F
STURGEON BAY   CLOUDY    45  32  61 NE12      30.08F
MANITOWOC      LGT RAIN  43  37  79 NE12G22   30.06R
SHEBOYGAN      CLOUDY    42  37  82 N7        30.03R
$$

LMZ563-521-522-541>543-010700-
LAKESHORE

STATION/POSITION TIME  TEMP    WIND        PRES    VSBY  WAVE
                       AIR SEA DIR/SP/G                  HT/PER
                 (UTC) (F)     (DEG/KT/KT) (MB)    (MI)  (FT/S)
SHEBOYGAN LKSHOR 0600   42      10/ 17/ 19 1017.6R
KEWAUNEE LKSHORE 0500   42      40/ 15/ 20 1017.0R
ALGOMA MARINA    0445           40/ 18/ 23   N/A
NORTHPORT PIER   0500   42      10/ 13/ 15 1018.6F
N MID LAKE BUOY  0550   40 39   20/ 14/ 17 1018.4F         3/ 4
CHAMBERS ISLAND  0500   42     360/ 14/ 17 1019.0F
MENOMINEE LKSHOR 0500   45      10/ 15/ 19 1017.5S
$$




USA.gov is the U.S. government's official web portal to all federal, state and local government web resources and services.